[[{"header":{"parameterUnit":"m.s-1","parameterCategory":1,"la1":30.2992,"la2":30.254,"lo1":-89.0895,"lo2":-89.0443,"dy":0.0025,"dx":0.0025,"nx":19,"ny":19,"refTime":"2026-04-25T21:00:00:Z","depth":0,"parameterNumber":2,"parameterNumberName":"U-component_of_WINDS"},"data":[0,0,0,2.0713,2.0715,2.0777,2.0777,2.087,2.0871,0,0,0,0,0,0,0,0,0,0,0,2.0702,2.0703,2.0713,2.0715,2.0777,2.0777,2.087,2.0871,0,0,0,0,0,0,0,0,0,0,0,2.0701,2.0702,2.0703,2.0715,2.0777,2.0777,2.087,2.0818,0,0,0,0,0,0,0,0,0,0,2.0756,2.0751,2.0702,2.0703,2.0716,2.0777,2.0777,2.0816,2.0821,2.0847,0,2.0871,0,2.0873,2.0878,2.0878,0,0,0,2.071,2.0746,2.0757,2.0704,2.0716,2.0777,2.0748,2.0819,2.0825,2.0855,2.0872,2.0875,2.0874,2.0879,2.0879,2.1044,2.1045,0,0,2.0707,2.0716,2.0752,2.0762,2.0752,2.0746,2.075,2.0823,2.0842,2.0872,2.0877,2.0876,2.0879,2.088,2.1043,2.1044,0,0,0,2.07,2.0714,2.0723,2.0758,2.0768,2.0748,2.0752,2.0839,2.0841,2.0878,2.0877,2.088,2.0881,2.1042,2.1044,2.1104,0,0,0,2.0698,2.071,2.0722,2.0728,2.0767,2.0804,2.0767,2.0836,2.0843,2.0876,2.088,2.0882,2.1041,2.1043,2.11,2.1131,0,0,0,2.0695,2.071,2.0721,2.0729,2.0756,2.0802,2.0809,2.0837,2.0843,2.0878,2.0882,2.104,2.1042,2.1096,2.1125,2.1179,0,0,0,2.0696,2.0772,2.0722,2.0808,2.0755,2.0839,2.0808,2.0869,2.0907,2.088,2.1041,2.1043,2.1095,2.1121,2.1175,2.1227,2.1249,0,0,2.0798,2.0785,2.0835,2.0792,2.0887,2.0829,2.0933,2.0958,2.0952,2.1014,2.1018,2.1101,2.1124,2.1178,2.1368,2.1386,0,0,0,2.0871,2.0907,2.093,2.0966,2.0988,2.1009,2.1017,2.1027,2.108,2.0985,2.1134,2.1148,2.1179,2.1203,2.1219,2.1246,2.1055,2.1054,2.1054,2.1029,2.1019,2.1102,2.11,2.1136,2.1145,2.1174,2.1189,2.1166,2.1203,2.1221,2.1337,2.1366,2.1378,2.1406,2.1247,2.1247,2.1247,2.1247,2.118,2.123,2.1202,2.1272,2.1261,2.132,2.1334,2.1316,2.1371,2.1322,2.1349,2.1297,2.1397,2.1422,2.1252,2.1251,2.125,2.125,2.1249,2.1283,2.1306,2.1317,2.1372,2.1415,2.1411,2.1466,2.1454,2.1443,2.147,2.149,2.1489,2.1488,2.148,2.1481,2.1481,2.1481,2.1482,2.1482,2.1387,2.1398,2.1445,2.1477,2.1501,2.1531,2.1544,2.1567,2.159,2.1577,2.1578,2.1554,2.1409,2.1373,2.1488,2.1487,2.1486,2.1486,2.1485,2.1545,2.1508,2.1582,2.1606,2.1644,2.169,2.1675,2.1725,2.1743,2.1771,2.1742,2.1636,2.1622,2.161,2.1581,2.1742,2.1742,2.1742,2.1742,2.1634,2.1626,2.17,2.174,2.1778,2.1773,2.186,2.1872,2.1878,2.1889,2.1864,2.1824,2.1812,2.1805,2.1789,2.1761,2.1965,2.1966,2.1966,2.1732,2.1728,2.1802,2.1808,2.1839,2.1866,2.1947,2.1996,2.1995,2.1975,2.1898,2.1889,2.1824,2.1803,2.178,2.1755,2.1704,0,0]},{"header":{"parameterUnit":"m.s-1","parameterCategory":1,"la1":30.2992,"la2":30.254,"lo1":-89.0895,"lo2":-89.0443,"dy":0.0025,"dx":0.0025,"nx":19,"ny":19,"refTime":"2026-04-25T21:00:00:Z","depth":0,"parameterNumber":3,"parameterNumberName":"V-component_of_WINDS"},"data":[0,0,0,-0.3183,-0.3183,-0.3197,-0.3197,-0.3205,-0.3205,0,0,0,0,0,0,0,0,0,0,0,-0.3173,-0.3173,-0.3183,-0.3183,-0.3197,-0.3197,-0.3205,-0.3205,0,0,0,0,0,0,0,0,0,0,0,-0.3174,-0.3173,-0.3173,-0.3183,-0.3197,-0.3197,-0.3205,-0.3198,0,0,0,0,0,0,0,0,0,0,-0.3187,-0.3172,-0.3173,-0.3173,-0.3183,-0.3197,-0.3197,-0.3198,-0.3199,-0.3195,0,-0.319,0,-0.3198,-0.3205,-0.3205,0,0,0,-0.3187,-0.3171,-0.318,-0.3173,-0.3183,-0.3197,-0.3192,-0.3198,-0.3199,-0.3196,-0.3191,-0.3191,-0.3198,-0.3205,-0.3205,-0.3172,-0.3172,0,0,-0.3187,-0.3173,-0.318,-0.3181,-0.3178,-0.3191,-0.3192,-0.3199,-0.3192,-0.3191,-0.3192,-0.3198,-0.3205,-0.3205,-0.3173,-0.3172,0,0,0,-0.3182,-0.3172,-0.3181,-0.318,-0.3183,-0.3192,-0.3193,-0.3192,-0.3196,-0.3192,-0.3198,-0.3205,-0.3205,-0.3173,-0.3172,-0.3143,0,0,0,-0.3182,-0.3169,-0.318,-0.3172,-0.3183,-0.3188,-0.3185,-0.3196,-0.3197,-0.3198,-0.3205,-0.3205,-0.3173,-0.3173,-0.3145,-0.3131,0,0,0,-0.3174,-0.3168,-0.3168,-0.3171,-0.3177,-0.3188,-0.3193,-0.3196,-0.3201,-0.3205,-0.3205,-0.3174,-0.3173,-0.3146,-0.3134,-0.312,0,0,0,-0.3163,-0.3141,-0.3168,-0.3146,-0.3176,-0.3169,-0.3193,-0.3188,-0.3188,-0.3205,-0.3173,-0.3173,-0.3146,-0.3135,-0.3121,-0.3106,-0.3098,0,0,-0.3127,-0.3136,-0.3124,-0.3149,-0.3134,-0.3168,-0.3149,-0.3162,-0.3174,-0.3172,-0.3172,-0.3144,-0.3134,-0.312,-0.3057,-0.3051,0,0,0,-0.3108,-0.31,-0.3099,-0.3099,-0.3109,-0.3116,-0.3134,-0.3139,-0.3138,-0.317,-0.3135,-0.3129,-0.3122,-0.3115,-0.311,-0.3105,-0.3169,-0.3169,-0.3169,-0.3038,-0.3056,-0.3039,-0.3059,-0.3059,-0.3078,-0.308,-0.309,-0.3107,-0.3099,-0.3099,-0.3058,-0.305,-0.3046,-0.3041,-0.3091,-0.3091,-0.3091,-0.3091,-0.2989,-0.298,-0.3005,-0.2998,-0.3017,-0.3011,-0.3029,-0.3042,-0.3039,-0.306,-0.3054,-0.3076,-0.3039,-0.3035,-0.3089,-0.3089,-0.3089,-0.309,-0.309,-0.2945,-0.2945,-0.2952,-0.2955,-0.2955,-0.2976,-0.2973,-0.2991,-0.3007,-0.3001,-0.3004,-0.3005,-0.3009,-0.3001,-0.3001,-0.3001,-0.3001,-0.3001,-0.3001,-0.2898,-0.2907,-0.2903,-0.2912,-0.2916,-0.2922,-0.2942,-0.2945,-0.2954,-0.2967,-0.2967,-0.2987,-0.3031,-0.3043,-0.2999,-0.2999,-0.2999,-0.3,-0.3,-0.2843,-0.2859,-0.2852,-0.2855,-0.2869,-0.2869,-0.2891,-0.2897,-0.2903,-0.2901,-0.2922,-0.2952,-0.2962,-0.2966,-0.2976,-0.2917,-0.2917,-0.2917,-0.2917,-0.2808,-0.2815,-0.2812,-0.2817,-0.2823,-0.2843,-0.2835,-0.2851,-0.2869,-0.2874,-0.2885,-0.2899,-0.2903,-0.2911,-0.2916,-0.2926,-0.2856,-0.2856,-0.2855,-0.2776,-0.2784,-0.2774,-0.2793,-0.2805,-0.2816,-0.2809,-0.2813,-0.2837,-0.2853,-0.2878,-0.2881,-0.2904,-0.291,-0.2927,-0.2936,-0.2953,0,0]}]]